📊 Raw Sensor Data
Showing records 33576 to 33600 of 84,785 total
| ID | Distance (ft) | Battery V | Battery A | Int Temp (°F) | Int Humid (%) | Ext Temp (°F) | Solar V | RSSI | SNR | Time Stamp |
|---|---|---|---|---|---|---|---|---|---|---|
| 51222 | 14.8 | 3.98 | 0 | 78 | 41 | 77 | 5.10 | -73 | 7 | 09/06/2025 11:15 AM |
| 51221 | 14.8 | 3.98 | 0 | 78 | 41 | 76 | 5.10 | -74 | 7 | 09/06/2025 11:00 AM |
| 51220 | 14.8 | 4.13 | 7 | 76 | 41 | 77 | 5.10 | -74 | 7 | 09/06/2025 10:45 AM |
| 51219 | 14.8 | 3.97 | 0 | 75 | 42 | 76 | 5.10 | -75 | 7 | 09/06/2025 10:30 AM |
| 51218 | 14.8 | 3.97 | 7 | 74 | 41 | 73 | 5.10 | -74 | 7 | 09/06/2025 10:15 AM |
| 51217 | 14.8 | 3.97 | 0 | 72 | 42 | 74 | 5.10 | -74 | 8 | 09/06/2025 10:00 AM |
| 51216 | 14.9 | 3.97 | 7 | 71 | 42 | 74 | 5.10 | -75 | 8 | 09/06/2025 09:45 AM |
| 51215 | 14.8 | 3.97 | 7 | 69 | 42 | 73 | 5.10 | -76 | 7 | 09/06/2025 09:30 AM |
| 51214 | 14.7 | 3.97 | 7 | 68 | 42 | 71 | 5.10 | -74 | 8 | 09/06/2025 09:15 AM |
| 51213 | 14.7 | 3.97 | 7 | 67 | 42 | 71 | 5.10 | -76 | 8 | 09/06/2025 09:00 AM |
| 51212 | 14.7 | 4.06 | 7 | 66 | 41 | 67 | 5.10 | -75 | 8 | 09/06/2025 08:45 AM |
| 51211 | 14.7 | 3.97 | 7 | 65 | 41 | 68 | 5.10 | -73 | 7 | 09/06/2025 08:30 AM |
| 51210 | 14.6 | 4.10 | 67 | 62 | 42 | 66 | 4.50 | -74 | 7 | 09/06/2025 08:00 AM |
| 51209 | 14.6 | 4.02 | 51 | 61 | 42 | 66 | 4.50 | -75 | 8 | 09/06/2025 07:45 AM |
| 51208 | 14.6 | 3.99 | -7 | 59 | 42 | 61 | 4.50 | -75 | 8 | 09/06/2025 07:30 AM |
| 51207 | 14.6 | 3.99 | 0 | 58 | 43 | 62 | 4.50 | -75 | 8 | 09/06/2025 07:15 AM |
| 51206 | 14.6 | 3.90 | 0 | 58 | 43 | 60 | 4.50 | -74 | 8 | 09/06/2025 07:00 AM |
| 51205 | 14.6 | 3.89 | -20 | 57 | 43 | 59 | 4.20 | -73 | 8 | 09/06/2025 06:45 AM |
| 51204 | 14.6 | 3.96 | -5 | 58 | 43 | 59 | 0.90 | -73 | 8 | 09/06/2025 06:30 AM |
| 51203 | 14.6 | 3.90 | -5 | 58 | 43 | 59 | 0.00 | -74 | 7 | 09/06/2025 06:15 AM |
| 51202 | 14.6 | 3.90 | -5 | 58 | 43 | 59 | 0.00 | -73 | 8 | 09/06/2025 06:00 AM |
| 51201 | 14.6 | 3.90 | -5 | 58 | 43 | 59 | 0.00 | -74 | 7 | 09/06/2025 05:45 AM |
| 51200 | 14.6 | 3.90 | -5 | 58 | 43 | 59 | 0.00 | -74 | 8 | 09/06/2025 05:30 AM |
| 51199 | 14.6 | 3.90 | -5 | 58 | 43 | 59 | 0.00 | -72 | 8 | 09/06/2025 05:15 AM |
| 51198 | 14.6 | 3.90 | -5 | 58 | 43 | 59 | 0.00 | -74 | 8 | 09/06/2025 05:00 AM |